www.pogodaiklimat.ru

Погода и климат >> Архив погоды >> Испания >> Севилья


АРХИВ ПОГОДЫ в Севилье

Время (UTC), дата Ветер
(напр.,м/с)
 
Видим.   Явления Облачность Т
(С)
Тd
(С)
f
(%)
Тe
(С)
Тes
(С)
Комфортность P
(гПа)
Po
(гПа)
Тmin
(С)
Tmax
(С)
R
(мм)
R24
(мм)
S
(см)
13 12.08 СЗ 2 н/о н/о +32.1 +1.2 14 +29 +29 жарко 1015.5 1012.0
14 12.08 СВ 2 н/о н/о +32.4 +1.5 14 +29 +29 жарко 1014.7 1011.2
15 12.08 Ю 3 30 км ясно +33.4 +0.1 12 +30 +41 жарко 1013.8 1010.4
16 12.08 С 3 н/о н/о +34.3 -1.7 10 +31 +31 жарко 1013.3 1009.9
17 12.08 З 4 н/о н/о +34.6 -1.5 10 +31 +31 жарко 1012.8 1009.4
18 12.08 СЗ 4 30 км 4/0
[Ac As Ci sp]
+34.2 -1.8 10 +30 +31 жарко 1012.6 1009.2 +34.9
19 12.08 ЮЗ 6 н/о н/о +29.3 +8.4 27 +29 +29 жарко 1013.6 1010.1
20 12.08 ЮЗ 4 н/о н/о +26.5 +10.6 37 +27 +27 жарко 1014.3 1010.8
21 12.08 ЮЗ 3 30 км 5/0
[Ac As Ci sp]
+25.1 +11.3 42 +26 +26 жарко 1015.0 1011.5
22 12.08 Ю 1 н/о н/о +24.6 +11.4 44 +26 +26 жарко 1015.3 1011.8
23 12.08 Ю 3 н/о н/о +23.8 +11.0 45 +25 +25 комфорт 1015.4 1011.8
00 13.08 Ю 2 30 км 5/0
[Ac As Ci sp]
+23.1 +12.7 52 +26 +26 жарко 1015.5 1011.9
01 13.08 Ю 3 н/о н/о +21.2 +12.9 59 +23 +23 комфорт 1015.4 1011.8
02 13.08 Ю 2 н/о н/о +19.4 +12.2 63 +21 +21 комфорт 1014.9 1011.3
03 13.08 Ю 1 30 км 5/0
[Ac As Ci sp]
+18.2 +11.8 66 +20 +20 прохладно 1014.7 1011.1
04 13.08 Ю 3 н/о н/о +19.9 +11.9 60 +22 +22 комфорт 1014.8 1011.2
05 13.08 штиль 0 н/о н/о +18.4 +11.4 64 +19 +19 прохладно 1015.0 1011.4
06 13.08 В 1 20 км ясно +16.7 +9.9 64 +18 +18 прохладно 1015.6 1012.0 +16.7
07 13.08 В 1 н/о н/о +20.7 +9.6 49 +23 +23 комфорт 1016.0 1012.4
08 13.08 СВ 3 н/о н/о +24.8 +6.5 31 +25 +25 комфорт 1016.2 1012.7
09 13.08 ЮВ 1 30 км ясно +27.8 +7.1 27 +27 +37 жарко 1016.6 1013.1
10 13.08 ЮВ 2 н/о н/о +29.3 +8.4 27 +29 +29 жарко 1016.9 1013.4
11 13.08 В 2 н/о н/о +31.0 +7.8 24 +30 +30 жарко 1016.9 1013.4
12 13.08 ЮЗ 2 30 км 3/0
[Ci fib]
+32.5 +5.7 19 +30 +48 жарко 1016.3 1012.8
13 13.08 З 2 н/о н/о +34.2 +4.8 16 +32 +32 жарко 1015.8 1012.4
14 13.08 ЮЗ 2 н/о н/о +35.2 +2.6 13 +32 +32 жарко 1015.2 1011.8
15 13.08 В 2 30 км 4/0
[Ci fib]
+35.3 +1.6 12 +32 +44 жарко 1014.5 1011.1
16 13.08 Ю 2 н/о н/о +36.3 +1.1 11 +33 +33 жарко 1014.1 1010.7
17 13.08 З 3 н/о н/о +36.3 +1.1 11 +33 +33 жарко 1013.8 1010.4
18 13.08 ЮЗ 7 30 км 1/0
[Ci fib]
+34.4 +6.7 18 +32 +33 жарко 1013.9 1010.5 +36.6
19 13.08 ЮЗ 6 н/о н/о +32.9 +6.2 19 +31 +31 жарко 1014.2 1010.8
20 13.08 ЮЗ 4 н/о н/о +31.0 +6.7 22 +30 +30 жарко 1015.0 1011.5
21 13.08 ЮЗ 4 30 км ясно +28.3 +8.0 28 +28 +28 жарко 1016.0 1012.5
22 13.08 ЮЗ 4 н/о н/о +25.7 +9.9 37 +26 +26 жарко 1016.6 1013.1
23 13.08 Ю 4 н/о н/о +24.2 +10.1 41 +25 +25 комфорт 1017.1 1013.5
00 14.08 Ю 4 30 км ясно +22.3 +11.7 51 +25 +25 комфорт 1017.3 1013.7
01 14.08 Ю 4 н/о н/о +21.0 +12.4 58 +24 +24 комфорт 1017.3 1013.7
02 14.08 Ю 3 н/о н/о +21.1 +11.8 55 +23 +23 комфорт 1017.3 1013.7
03 14.08 СВ 2 30 км ясно +20.6 +11.8 57 +23 +23 комфорт 1017.3 1013.7
04 14.08 СВ 1 н/о н/о +19.6 +11.5 59 +22 +22 комфорт 1017.5 1013.9
05 14.08 СВ 3 н/о н/о +19.7 +10.4 55 +21 +21 комфорт 1017.5 1013.9
06 14.08 штиль 0 30 км ясно +19.9 +10.3 54 +21 +21 комфорт 1017.9 1014.3 +19.2
07 14.08 С 1 н/о н/о +22.1 +10.3 47 +24 +24 комфорт 1018.3 1014.7
08 14.08 С 3 н/о н/о +24.8 +10.5 41 +26 +26 жарко 1018.7 1015.1
09 14.08 С 3 30 км ясно +27.3 +11.9 38 +28 +36 жарко 1018.6 1015.1
10 14.08 В 2 н/о н/о +30.0 +13.7 37 +32 +32 жарко 1018.5 1015.0
11 14.08 СЗ 2 н/о н/о +32.3 +13.4 32 +33 +33 жарко 1018.1 1014.6
12 14.08 С 2 30 км ясно +33.8 +12.6 28 +34 +52 опасность
солнечного
удара
1017.4 1014.0
13 14.08 З 2 н/о н/о +35.5 +11.8 24 +35 +35 очень
жарко
1016.6 1013.2
14 14.08 З 4 н/о н/о +36.4 +10.6 21 +35 +35 очень
жарко
1015.9 1012.5
15 14.08 СЗ 3 30 км ясно +37.4 +6.4 15 +35 +46 очень
жарко
1015.3 1011.9
16 14.08 СЗ 1 н/о н/о +38.2 +6.0 14 +36 +36 очень
жарко
1014.8 1011.4
17 14.08 С 2 н/о осадки н/о +37.5 +5.5 14 +35 +35 очень
жарко
1014.3 1010.9
18 14.08 З 1 30 км ясно +38.1 +6.0 14 +35 +37 очень
жарко
1013.9 1010.5 +38.6 0.0
19 14.08 ЮЗ 2 н/о н/о +36.1 +6.9 17 +34 +34 очень
жарко
1014.1 1010.7
20 14.08 З 5 н/о н/о +33.1 +13.7 31 +34 +34 очень
жарко
1014.7 1011.3
21 14.08 ЮЗ 2 30 км ясно +31.3 +13.6 34 +33 +33 жарко 1015.5 1012.0
22 14.08 Ю 5 н/о н/о +25.7 +18.6 65 +31 +31 очень
душно
1016.2 1012.7
23 14.08 Ю 3 н/о н/о +25.1 +18.3 66 +30 +30 душно 1016.3 1012.8
00 15.08 Ю 2 30 км ясно +24.1 +17.4 66 +28 +28 душно 1016.6 1013.1
01 15.08 З 2 н/о н/о +24.0 +17.5 67 +28 +28 душно 1016.6 1013.1
02 15.08 ЮЗ 3 н/о н/о +23.7 +17.5 68 +28 +28 душно 1016.2 1012.7
03 15.08 ЮВ 1 30 км ясно +22.5 +17.4 73 +27 +27 душно 1016.4 1012.8
04 15.08 В 2 н/о н/о +21.6 +17.0 75 +26 +26 душно 1016.4 1012.8
05 15.08 штиль 0 н/о н/о +21.5 +16.9 75 +25 +25 комфорт 1016.5 1012.9
06 15.08 СВ 1 25 км ясно +21.3 +16.5 74 +25 +25 комфорт 1017.0 1013.4 +21.2
07 15.08 С 1 н/о н/о +22.8 +17.0 70 +28 +28 душно 1017.2 1013.6
08 15.08 штиль 0 н/о н/о +26.0 +17.4 59 +30 +30 душно 1017.3 1013.8
09 15.08 штиль 0 30 км ясно +28.4 +16.7 49 +32 +44 душно 1017.2 1013.7
10 15.08 В 1 н/о н/о +31.2 +15.6 39 +34 +34 душно 1017.1 1013.6
11 15.08 ЮВ 1 н/о н/о +33.6 +14.1 31 +35 +35 душно 1016.6 1013.2
12 15.08 ЮЗ 3 30 км ясно +35.2 +12.9 26 +35 +52 опасность
солнечного
удара
1016.0 1012.6
13 15.08 З 2 н/о н/о +37.4 +12.1 22 +37 +37 очень
жарко
1015.4 1012.0
14 15.08 З 3 н/о н/о +38.0 +9.6 18 +36 +36 очень
жарко
1014.8 1011.4
15 15.08 ЮЗ 2 30 км ясно +39.1 +8.7 16 +37 +49 очень
жарко
1014.1 1010.7
16 15.08 ЮЗ 3 н/о н/о +39.3 +9.8 17 +38 +38 очень
жарко
1013.5 1010.1
17 15.08 ЮЗ 5 н/о н/о +38.4 +12.2 21 +38 +38 очень
жарко
1013.4 1010.0
18 15.08 ЮЗ 5 н/о н/о +37.1 +12.5 23 +37 +37 очень
жарко
1013.4 1010.0 +39.5
19 15.08 З 6 н/о н/о +35.7 +11.4 23 +35 +35 очень
жарко
1013.8 1010.4
20 15.08 З 6 н/о н/о +33.9 +10.4 24 +33 +33 жарко 1014.3 1010.9
21 15.08 ЮЗ 5 30 км ясно +30.5 +11.6 31 +31 +31 жарко 1015.5 1012.0
22 15.08 Ю 3 н/о н/о +28.5 +12.8 38 +30 +30 жарко 1015.7 1012.2
23 15.08 Ю 3 н/о н/о +27.3 +13.5 43 +29 +29 жарко 1015.9 1012.4
00 16.08 Ю 5 30 км ясно +25.1 +15.3 55 +28 +28 жарко 1015.7 1012.2
01 16.08 Ю 2 н/о н/о +24.0 +16.0 61 +27 +27 жарко 1015.8 1012.3
02 16.08 Ю 2 н/о н/о +22.9 +15.5 63 +27 +27 душно 1015.8 1012.2
03 16.08 штиль 0 30 км ясно +23.5 +15.0 59 +26 +26 жарко 1015.6 1012.0
04 16.08 ЮВ 1 н/о н/о +22.1 +15.0 64 +26 +26 душно 1015.5 1011.9
05 16.08 СВ 1 н/о н/о +21.9 +15.0 65 +25 +25 комфорт 1015.7 1012.1
06 16.08 СВ 2 30 км ясно +21.7 +14.6 64 +25 +25 комфорт 1016.0 1012.4 +21.6
07 16.08 В 2 н/о н/о +24.2 +14.9 56 +27 +27 жарко 1016.3 1012.8
08 16.08 В 1 н/о н/о +27.4 +14.7 46 +30 +30 жарко 1016.7 1013.2
09 16.08 Ю 3 30 км ясно +29.5 +13.3 37 +31 +39 жарко 1016.6 1013.1
10 16.08 ЮЗ 3 н/о н/о +31.1 +12.8 33 +32 +32 жарко 1016.7 1013.2
11 16.08 ЮЗ 3 н/о н/о +33.2 +12.2 28 +33 +33 жарко 1016.3 1012.9
12 16.08 ЮЗ 4 30 км ясно +34.4 +12.0 26 +34 +46 очень
жарко
1015.8 1012.4
13 16.08 ЮЗ 5 н/о н/о +35.8 +12.0 24 +36 +36 очень
жарко
1015.1 1011.7
14 16.08 ЮЗ 5 н/о н/о +36.9 +13.4 25 +37 +37 очень
жарко
1014.6 1011.2
15 16.08 ЮЗ 6 30 км ясно +37.8 +11.7 21 +37 +42 очень
жарко
1014.0 1010.6
16 16.08 ЮЗ 6 н/о н/о +37.7 +10.9 20 +37 +37 очень
жарко
1013.4 1010.0
17 16.08 ЮЗ 6 н/о н/о +37.7 +10.1 19 +36 +36 очень
жарко
1013.1 1009.7
18 16.08 ЮЗ 5 30 км ясно +36.9 +10.2 20 +36 +36 очень
жарко
1013.0 1009.6 +38.4
19 16.08 ЮЗ 6 н/о н/о +34.2 +10.1 23 +33 +33 жарко 1013.4 1010.0
20 16.08 ЮЗ 4 н/о н/о +32.7 +9.7 24 +32 +32 жарко 1014.0 1010.6
21 16.08 ЮЗ 4 30 км ясно +30.2 +11.2 31 +31 +31 жарко 1015.0 1011.5
22 16.08 ЮЗ 2 н/о н/о +28.2 +12.4 38 +30 +30 жарко 1015.2 1011.7
23 16.08 ЮЗ 3 н/о н/о +27.1 +12.3 40 +29 +29 жарко 1015.1 1011.6
00 17.08 Ю 4 30 км ясно +25.6 +12.8 45 +27 +27 жарко 1014.9 1011.4
01 17.08 Ю 5 н/о н/о +23.7 +14.9 58 +27 +27 жарко 1014.8 1011.3
02 17.08 Ю 2 н/о н/о +23.6 +14.9 58 +26 +26 жарко 1014.7 1011.2
03 17.08 Ю 1 30 км ясно +23.0 +14.9 60 +27 +27 душно 1014.8 1011.2
04 17.08 В 2 н/о н/о +21.9 +14.8 64 +25 +25 комфорт 1014.7 1011.1
05 17.08 В 2 н/о н/о +21.3 +14.2 64 +24 +24 комфорт 1014.7 1011.1
06 17.08 СВ 1 30 км ясно +21.3 +13.7 62 +24 +24 комфорт 1014.8 1011.2 +21.0
07 17.08 СВ 2 н/о н/о +23.0 +13.5 55 +26 +26 жарко 1014.9 1011.3
08 17.08 СВ 2 н/о н/о +26.4 +13.2 44 +28 +28 жарко 1015.1 1011.6
09 17.08 СВ 1 30 км ясно +29.4 +12.3 35 +30 +40 жарко 1015.0 1011.5
10 17.08 С 1 н/о н/о +32.4 +11.5 28 +32 +32 жарко 1014.6 1011.2
11 17.08 ЮВ 2 н/о н/о +35.1 +11.5 24 +35 +35 очень
жарко
1014.1 1010.7
12 17.08 З 2 30 км н/о +36.5 +11.3 22 +36 +36 очень
жарко
1013.5 1010.1
13 17.08 З 3 н/о н/о +38.6 +10.0 18 +37 +37 очень
жарко
1012.7 1009.3
14 17.08 ЮЗ 4 н/о н/о +39.7 +7.2 14 +37 +37 очень
жарко
1011.9 1008.5
15 17.08 З 5 30 км н/о +39.8 +6.2 13 +37 +37 очень
жарко
1011.4 1008.0
16 17.08 ЮЗ 4 н/о н/о +39.8 +5.6 12 +37 +37 очень
жарко
1011.0 1007.6
17 17.08 З 4 н/о н/о +39.5 +12.2 20 +39 +39 очень
жарко
1010.4 1007.0
18 17.08 З 6 30 км ясно +38.3 +9.0 17 +37 +37 очень
жарко
1010.2 1006.8 +40.2
19 17.08 З 4 н/о н/о +36.1 +8.0 18 +34 +34 очень
жарко
1010.5 1007.1
20 17.08 ЮЗ 4 н/о н/о +34.2 +8.8 21 +33 +33 жарко 1011.0 1007.6
21 17.08 ЮЗ 3 30 км ясно +32.7 +8.9 23 +32 +32 жарко 1011.8 1008.4
22 17.08 ЮЗ 3 н/о н/о +29.3 +11.4 33 +30 +30 жарко 1012.5 1009.0
23 17.08 Ю 3 н/о н/о +26.9 +12.5 41 +28 +28 жарко 1012.7 1009.2
00 18.08 Ю 5 30 км ясно +24.9 +14.7 53 +28 +28 жарко 1012.7 1009.2
01 18.08 Ю 2 н/о н/о +24.4 +15.1 56 +27 +27 жарко 1012.5 1009.0
02 18.08 Ю 2 н/о н/о +23.1 +14.3 58 +27 +27 душно 1012.2 1008.7
03 18.08 Ю 1 30 км ясно +22.3 +13.8 59 +25 +25 комфорт 1011.7 1008.1
04 18.08 ЮВ 2 н/о н/о +21.6 +13.9 62 +24 +24 комфорт 1011.6 1008.0
05 18.08 Ю 1 н/о н/о +21.2 +13.6 62 +24 +24 комфорт 1012.1 1008.5
06 18.08 Ю 2 30 км ясно +21.4 +13.3 60 +24 +24 комфорт 1012.6 1009.0 +20.7
07 18.08 ЮЗ 3 н/о н/о +23.6 +15.4 60 +27 +27 жарко 1012.9 1009.4
08 18.08 ЮЗ 4 н/о н/о +25.2 +17.4 62 +29 +29 душно 1013.8 1010.3
09 18.08 ЮЗ 5 30 км ясно +26.7 +17.7 58 +31 +35 душно 1014.1 1010.6
10 18.08 ЮЗ 5 н/о н/о +28.7 +16.5 48 +32 +32 душно 1014.5 1011.0
11 18.08 ЮЗ 5 н/о н/о +29.4 +18.3 51 +34 +34 очень
душно
1014.2 1010.7
12 18.08 ЮЗ 6 30 км ясно +31.1 +18.0 46 +36 +44 очень
душно
1013.9 1010.4
13 18.08 ЮЗ 5 н/о н/о +32.4 +17.8 42 +37 +37 очень
душно
1013.3 1009.9
14 18.08 ЮЗ 5 н/о н/о +34.0 +16.8 36 +37 +37 очень
душно
1012.5 1009.1
15 18.08 ЮЗ 6 30 км ясно +34.8 +15.2 31 +37 +41 очень
душно
1012.3 1008.9
16 18.08 ЮЗ 7 н/о н/о +34.3 +14.8 31 +36 +36 душно 1012.0 1008.6
17 18.08 ЮЗ 8 н/о н/о +33.7 +13.7 30 +35 +35 очень
жарко
1011.7 1008.3
18 18.08 ЮЗ 6 н/о н/о +32.1 +14.7 35 +34 +34 душно 1011.6 1008.2 +35.3
19 18.08 ЮЗ 7 30 км ясно +28.5 +14.7 43 +31 +31 душно 1012.1 1008.6
20 18.08 ЮЗ 4 н/о н/о +26.3 +15.7 52 +29 +29 жарко 1013.0 1009.5
21 18.08 ЮЗ 5 30 км ясно +24.8 +16.2 59 +28 +28 жарко 1014.0 1010.5
22 18.08 ЮЗ 5 н/о н/о +24.1 +16.9 64 +28 +28 душно 1014.2 1010.7
23 18.08 ЮЗ 2 н/о н/о +23.6 +17.1 67 +27 +27 жарко 1014.4 1010.9
00 19.08 Ю 2 30 км ясно +23.2 +17.0 68 +28 +28 душно 1014.6 1011.1
01 19.08 Ю 2 н/о н/о +22.0 +16.3 70 +26 +26 душно 1014.6 1011.0
02 19.08 Ю 3 н/о н/о +21.1 +16.3 74 +24 +24 комфорт 1014.3 1010.7
03 19.08 Ю 3 30 км ясно +21.5 +16.7 74 +25 +25 комфорт 1014.1 1010.5
04 19.08 Ю 1 н/о н/о +21.1 +16.5 75 +25 +25 комфорт 1014.1 1010.5
05 19.08 В 1 н/о н/о +20.3 +16.2 77 +25 +25 комфорт 1014.4 1010.8
06 19.08 ЮВ 1 30 км ясно +19.7 +16.3 81 +23 +23 комфорт 1015.0 1011.4 +19.5
07 19.08 Ю 2 н/о н/о +22.3 +18.1 77 +27 +27 душно 1015.1 1011.5
08 19.08 Ю 2 н/о н/о +24.2 +18.2 69 +29 +29 душно 1014.9 1011.4
09 19.08 Ю 2 30 км ясно +26.5 +18.4 61 +31 +40 душно 1015.0 1011.5
10 19.08 Ю 2 н/о н/о +28.7 +17.6 51 +33 +33 очень
душно
1015.1 1011.6
11 19.08 ЮЗ 3 н/о н/о +30.2 +17.9 48 +35 +35 очень
душно
1015.0 1011.5

 

Местоположение метеостанции Севилья (Испания): широта 37.42 долгота -5.90 высота над уровнем моря 31 м.

В архиве по умолчанию представлена погода в Севилье за последнюю неделю. Архивные данные за месяц целиком и за предыдущие месяцы, начиная с января 2011 года, Вы можете получить, выбрав интересующий диапазон дат из раскрывающегося списка и нажав кнопку "Ввод!".


*Определитесь, кто Вы:
робот инопланетянин человек

Внимание! Время в таблицах - всемирное. Для получения местного времени необходимо прибавить поправку, которая равна 1 ч.

Смотрите также архив погоды в соседних городах и на ближайших метеорологических станциях:

Погода в Морон-де-ла-Фронтере (Испания) (39 км)
Погода в Касалья-де-ла-Сьерра (Испания) (58 км)
Погода в Эсихе (Испания) (72 км)
Погода в Херес-де-ла-Фронтере (Испания) (76 км)
Погода в Эль-Ареносильо (Испания) (82 км)
Погода в Алахар - Кабезо Молин (Испания) (84 км)
Погода в Грасалеме (Испания) (87 км)
Погода в Льерене (Испания) (91 км)
Погода в Уэльве (Испания) (92 км)
Погода в Рода-де-Андалусия (Испания) (103 км)

Пояснения к столбцам:

Ветер - указаны скорость ветра в м/с - средняя за 10 мин, порывы в срок и между сроками (в фигурных скобках) и направление, откуда дует ветер: С - северный, СВ - северо-восточный, В - восточный, ЮВ - юго-восточный, Ю - южный, ЮЗ - юго-западный, З - западный, СЗ - северо-западный.
Видимость - горизонтальная дальность видимости в метрах или километрах. При видимости от 1 до 10 км при отсутствии осадков обычно наблюдается дымка, при ухудшении видимости до 1 км и менее - туман. В сухую погоду видимость может ухудшаться дымом, пылью или мглою.
Явления - указаны атмосферные явления, наблюдавшиеся в срок или в последний час перед сроком; фигурными скобками обозначены явления, наблюдавшиеся между сроками (за 1-3 часа до срока); квадратными скобками обозначены град или гололедные отложения с указанием их диаметра в мм.
Облачность - указаны через наклонную черту общая и нижняя облачность в баллах и высота нижней границы облаков в метрах; квадратными скобками обозначены формы облаков: Ci - перистые, Cs - перисто-слоистые, Cc - перисто-кучевые, Ac - высококучевые, As - высокослоистые, Sc - слоисто-кучевые, Ns - слоисто-дождевые, Cu - кучевые, Cb - кучево-дождевые. Подробнее классификацию облаков см. в Атласе облаков (PDF).
T - Температура воздуха - температура, измеренная на высоте 2 м над землей.
Td - Температура точки росы - температура, при понижении до которой содержащийся в воздухе водяной пар достигнет насыщения.
f - Относительная влажность воздуха - влажноcть воздуха, измеренная на высоте 2 м над землей.
Te - Эффективная температура - температура, которую ощущает одетый по сезону человек в тени. Характеристика душности погоды. При расчете учитывается влияние влажности воздуха и скорости ветра на теплоощущения человека.
Tes - Эффективная температура на солнце - температура, которую ощущает человек, с поправкой на солнечный нагрев. Характеристика знойности погоды. Зависит от высоты солнца над горизонтом, облачности и скорости ветра. Ночью, в пасмурную погоду, а также при ветре 12 м/с и более поправка равна нулю.
P - Атмосферное давление - приведенное к уровню моря атмосферное давление.
Po - Атмосферное давление - измеренное на уровне метеостанции атмосферное давление.
Tmin - Минимальная температура - минимум температуры воздуха на высоте 2 м над землей.
Tmax - Максимальная температура - максимум температуры воздуха на высоте 2 м над землей.
R - Количество осадков - Количество выпавших осадков за период времени, мм. При наведении курсора мыши на число - период времени, за который выпало указанное количество осадков.
R24 - Количество осадков - Количество выпавших осадков за 24 часа, мм.
S - Снежный покров - Высота снежного покрова, см. При наведении курсора мыши на число - состояние снежного покрова и степень покрытия местности в баллах.